Location: Clatteringshaws Loch
(55.0508°N, 4.2860°W)
Time: 04:31:21
(UTC+01:00)

SR - Visible Passes

Search period start: 30 July 2016 00:00
Search period end: 09 August 2016 00:00
Orbit: 584 x 874 km, 66.7° (Epoch: 29 July)

Date Brightness Start Highest point End Pass type
(mag) Time Alt. Az. Time Alt. Az. Time Alt. Az.
30 Jul ? 00:30:48 24° SE 00:31:55 27° ESE 00:35:40 10° ENE visible
30 Jul ? 02:10:13 17° WSW 02:13:43 64° NW 02:18:04 10° NE visible
30 Jul ? 03:52:55 10° WNW 03:56:30 23° NNW 04:00:00 10° NNE visible
30 Jul ? 23:42:24 15° ESE 23:42:56 15° ESE 23:45:35 10° ENE visible
31 Jul ? 01:21:48 26° SSW 01:24:22 79° SE 01:28:46 10° NE visible
31 Jul ? 03:02:50 10° W 03:06:49 30° NNW 03:10:41 10° NE visible
01 Aug ? 00:33:19 29° S 00:35:09 45° ESE 00:39:22 10° NE visible
01 Aug ? 02:12:54 10° WSW 02:17:16 42° NW 02:21:25 10° NE visible
01 Aug ? 03:57:06 10° WNW 04:00:20 19° NNW 04:03:30 10° NE visible
01 Aug ? 23:44:45 23° SE 23:46:02 26° ESE 23:49:43 10° ENE visible
02 Aug ? 01:24:09 16° SW 01:27:48 66° NW 01:32:09 10° NE visible
02 Aug ? 03:06:59 10° WNW 03:10:35 23° NNW 03:14:05 10° NNE visible
02 Aug ? 22:56:05 14° SE 22:57:04 15° ESE 22:59:34 10° ENE visible
03 Aug ? 00:35:28 21° SSW 00:38:29 76° SE 00:42:51 10° NE visible
03 Aug ? 02:16:55 10° W 02:20:54 30° NNW 02:24:46 10° NE visible
03 Aug ? 04:01:12 10° NW 04:04:13 18° N 04:07:11 10° NE visible
03 Aug ? 23:46:39 22° S 23:49:15 43° ESE 23:53:26 10° NE visible
04 Aug ? 01:27:00 10° WSW 01:31:20 43° NW 01:35:30 10° NE visible
04 Aug ? 03:11:10 10° WNW 03:14:25 20° NNW 03:17:35 10° NE visible
04 Aug ? 22:57:37 16° SSE 23:00:10 25° ESE 23:03:47 10° ENE visible
05 Aug ? 00:37:19 10° SW 00:41:54 68° NW 00:46:14 10° NE visible
05 Aug ? 02:21:04 10° WNW 02:24:39 23° NNW 02:28:09 10° NNE visible
05 Aug ? 04:05:06 10° NW 04:08:07 18° N 04:11:05 10° NE visible
05 Aug ? 22:08:48 10° SE 22:11:12 14° ESE 22:13:32 10° ENE visible
05 Aug ? 23:47:58 10° SSW 23:52:35 74° SE 23:56:56 10° NE visible
06 Aug ? 01:31:00 10° W 01:34:59 30° NNW 01:38:51 10° NE visible
06 Aug ? 03:15:16 10° NW 03:18:18 18° N 03:21:15 10° NE visible
06 Aug ? 22:59:00 10° SSW 23:03:22 42° ESE 23:07:30 10° NE visible
07 Aug ? 00:41:05 10° WSW 00:45:26 44° NW 00:49:36 10° NE visible
07 Aug ? 02:25:14 10° WNW 02:28:29 20° NNW 02:31:39 10° NE visible
07 Aug ? 04:08:48 10° NW 04:11:59 20° NNE 04:15:08 10° ENE visible
07 Aug ? 22:10:35 10° S 22:14:17 24° ESE 22:17:50 10° ENE visible
07 Aug ? 23:51:26 10° SW 23:56:00 69° NW 00:00:20 10° NE visible
08 Aug ? 01:35:07 10° WNW 01:38:44 24° NNW 01:42:14 10° NNE visible
08 Aug ? 03:19:11 10° NW 03:22:11 18° N 03:25:08 10° NE visible
08 Aug ? 23:02:05 10° SSW 23:06:41 71° SE 23:11:00 10° NE visible
